Meteo Giornale » Osservazioni meteo Italia » Genova-Sestri

ore: 20:50 - Osservazioni Meteo Genova-Sestri
Lat. 44° 25' N Lon. 8° 51' E Alt. 2 metri s.l.m.

poco_nuvoloso Europe/Rome

16 °C

Poco Nuvoloso

Temp. 24 Ore

14 °C

17 °C

Est/Sud-Est

24 Km/h

Dew point 12 °C

Umidità 77 %

Visibilità  10 Km

Il sole sorge alle ore 05:57

Il sole tramonta alle ore 20:44

Data e Ora Cielo e Fenomeni T °C DP °C Um. % Pres. hPa Vis. km Vento km/h
Oggi h: 20:50 poco_nuvoloso Poco Nuvoloso 16 12 77 1006 10 E/SE 24
Oggi h: 20:20 poco_nuvoloso Poco Nuvoloso 16 12 77 1005 10 SE 24
Oggi h: 19:50 poco_nuvoloso Poco Nuvoloso 17 12 72 1006 10 SE 27.8
Oggi h: 19:20 poco_nuvoloso Poco Nuvoloso 16 12 77 1006 10 SE 31.5
Oggi h: 18:50 nuvoloso Nuvoloso 16 12 77 1006 10 SE 29.6
Oggi h: 18:20 nuvoloso Nuvoloso 16 13 82 1006 10 SE 18.5
Oggi h: 17:20 nuvoloso Nuvoloso 16 13 82 1005 10 S/SE 13
Oggi h: 16:50 nuvoloso Nuvoloso 17 13 77 1006 10 SE 13
Oggi h: 16:20 nuvoloso Nuvoloso 16 13 82 1006 10 S 9.3
Oggi h: 15:50 nuvoloso Nuvoloso 17 13 77 1006 10 S/SO 7.4
Oggi h: 15:20 nuvoloso Nuvoloso 17 13 77 1006 10 S 7.4
Oggi h: 14:50 nuvoloso Nuvoloso 16 13 82 1005 10 S 7.4
Oggi h: 14:20 nuvoloso Nuvoloso 16 13 82 1005 10 S/SE 9.3
Oggi h: 13:50 nuvoloso Nuvoloso 16 13 82 1006 10 S/SE 13
Oggi h: 13:20 nuvoloso Nuvoloso 16 13 82 1006 10 S/SE 13
Oggi h: 12:50 nuvoloso Nuvoloso 16 13 82 1006 10 S/SE 11.1
Oggi h: 12:20 nuvoloso Nuvoloso 16 12 77 1006 10 S 7.4
Oggi h: 11:50 nuvoloso Nuvoloso 17 11 67 1006 10 S 11.1
Oggi h: 11:20 nuvoloso Nuvoloso 16 11 72 1006 10 S 11.1
Oggi h: 10:50 nuvoloso Nuvoloso 17 12 72 1006 10 S 7.4
Oggi h: 10:20 nuvoloso Nuvoloso 16 11 72 1006 10 N 5.5
Oggi h: 09:50 nuvoloso Nuvoloso 16 11 72 1006 10 N 5.5
Oggi h: 09:20 nuvoloso Nuvoloso 17 12 72 1006 10 N 3.7
Oggi h: 08:50 nuvoloso Nuvoloso 16 12 77 1006 10 N 5.5
Oggi h: 08:20 poco_nuvoloso Poco Nuvoloso 16 11 72 1006 10 N 1.8
Oggi h: 07:50 sereno Sereno 16 11 72 1006 10 N 3.7
Oggi h: 07:20 sereno Sereno 15 12 82 1006 10 N 5.5
Oggi h: 06:50 sereno Sereno 14 11 82 1006 10 N 1.8
Oggi h: 06:20 sereno Sereno 14 11 82 1006 10 N 7.4
Oggi h: 05:50 sereno Sereno 14 11 82 1006 10 NE 9.3
Oggi h: 05:20 nuvoloso Nuvoloso 15 11 76 1007 10 N 5.5
Oggi h: 04:50 nuvoloso Nuvoloso 15 11 76 1007 10 N 5.5
Oggi h: 04:20 nuvoloso Nuvoloso 15 11 76 1007 10 N/NE 11.1
Oggi h: 03:50 molto_nuvoloso Molto Nuvoloso 15 11 76 1007 10 NE 11.1
Oggi h: 03:20 molto_nuvoloso Molto Nuvoloso 15 12 82 1007 10 NE 9.3
Oggi h: 02:50 coperto_pioggia Pioviggine Leggera 15 12 82 1007 10 E 7.4
Oggi h: 02:20 molto_nuvoloso Molto Nuvoloso 16 12 77 1008 10 E 9.3
Oggi h: 01:50 molto_nuvoloso Molto Nuvoloso 16 13 82 1008 10 E/SE 14.8
Oggi h: 01:20 molto_nuvoloso Molto Nuvoloso 16 13 82 1008 10 E/SE 18.5
Oggi h: 00:50 nuvoloso Nuvoloso 16 13 82 1008 10 E/SE 20.3
Oggi h: 00:20 nuvoloso Nuvoloso 16 13 82 1008 10 E/SE 20.3
Ieri h: 23:50 nuvoloso Nuvoloso 16 13 82 1008 10 SE 20.3
Ieri h: 23:20 nuvoloso Nuvoloso 16 13 82 1009 10 S/SE 16.7
Ieri h: 22:50 molto_nuvoloso Molto Nuvoloso 16 13 82 1009 10 S 16.7
Ieri h: 22:20 nuvoloso Nuvoloso 16 12 77 1009 10 S 18.5
Ieri h: 21:50 nuvoloso Nuvoloso 16 13 82 1009 10 S 22.2